Terug naar catalogus

STARLINK-3868

ActiefCommunicatieVLEO
NORAD 52649·PAYLOAD·🇺🇸 United States

Gelanceerd May 14, 2022 vanaf Cape Canaveral Space Force Station

Loading…

Volgende Passages (komende 24 uur)

TLE

VersSource: CelesTrak SupGP

Epoch: Sep 14, 2026, 21:56 UTC

1 52649C 22052BD  26257.91437500 -.00021056  00000+0 -67730-3 0  2576
2 52649  53.1579 116.8177 0001376  84.1427 202.6103 15.31703442    17

Volg STARLINK-3868 in realtime met AllMySat

Download on the App Store